Findlay, OH

5:45 AM EST on December 10, 2019 (GMT -0500)
Findlay

Weather History for KFDY - October, 2019

Change the Weather History Date:

Tuesday, October 15, 2019

  Actual Average Record
Temperature  
Mean Temperature 56 °F -  
Max Temperature 75 °F 64 °F 83 °F (1956)
Min Temperature 37 °F 43 °F 30 °F (2006)
Degree Days  
Heating Degree Days 9    
Growing Degree Days 6 (Base 50)    
Moisture  
Dew Point 39 °F    
Average Humidity 55    
Maximum Humidity 89    
Minimum Humidity 22    
Precipitation  
Precipitation 0.00 in - - ()
Sea Level Pressure  
Sea Level Pressure 29.94 in    
Wind  
Wind Speed 8 mph (South)    
Max Wind Speed 21 mph    
Max Gust Speed 28 mph    
Visibility 10 miles    
Events Rain    
Averages and records for this station are not official NWS values.
T = Trace of Precipitation, MM = Missing Value Source: NWS Daily Summary

Daily Weather History Graph

Daily Weather History Graph

Search for Another Location

Airport or City:

Astronomy

Oct. 15, 2019 Rise Set
Actual Time 7:45 AM EDT 6:54 PM EDT
Civil Twilight 7:18 AM EDT 7:22 PM EDT
Nautical Twilight 6:46 AM EDT 7:53 PM EDT
Astronomical Twilight 6:14 AM EDT 8:25 PM EDT
Moon 8:13 PM EDT (10/15) 9:15 AM EDT (10/15)
Length of Visible Light 12h 03m
Length of Day
11h 08m
Full, 97% of the Moon is Illuminated
Oct 15
Full
Oct 21
Last Quarter
Oct 27
New
Nov 4
First Quarter
Nov 12
Full

Hourly Weather History & Observations

Time (EDT) Temp. Windchill Dew Point Humidity Pressure Visibility Wind Dir Wind Speed Gust Speed Precip Events Conditions
12:53 AM 37.9 °F 35.5 °F 35.1 °F 89% 30.11 in 10.0 mi SSE 3.5 mph - N/A   Clear
1:53 AM 39.9 °F - 35.1 °F 83% 30.11 in 10.0 mi Calm Calm - N/A   Clear
2:53 AM 41.0 °F 39.0 °F 35.1 °F 79% 30.11 in 10.0 mi SE 3.5 mph - N/A   Clear
3:53 AM 41.0 °F - 35.1 °F 79% 30.11 in 10.0 mi Calm Calm - N/A   Clear
4:53 AM 41.0 °F 37.1 °F 34.0 °F 76% 30.09 in 10.0 mi SE 5.8 mph - N/A   Clear
5:53 AM 39.9 °F 35.8 °F 34.0 °F 79% 30.10 in 10.0 mi SSE 5.8 mph - N/A   Clear
6:53 AM 39.0 °F 34.0 °F 33.1 °F 79% 30.11 in 10.0 mi SSE 6.9 mph - N/A   Clear
7:53 AM 42.1 °F 36.6 °F 35.1 °F 76% 30.09 in 10.0 mi SE 9.2 mph - N/A   Clear
8:53 AM 46.0 °F 41.0 °F 37.0 °F 71% 30.08 in 10.0 mi SE 10.4 mph - N/A   Clear
9:53 AM 52.0 °F - 39.9 °F 63% 30.07 in 10.0 mi SSE 10.4 mph - N/A   Clear
10:53 AM 57.9 °F - 41.0 °F 53% 30.04 in 10.0 mi SSE 12.7 mph - N/A   Clear
11:53 AM 63.0 °F - 41.0 °F 45% 30.01 in 10.0 mi South 17.3 mph - 0.00 in Rain Light Rain
12:53 PM 66.9 °F - 37.9 °F 34% 29.96 in 10.0 mi South 16.1 mph - 0.00 in   Clear
1:53 PM 71.1 °F - 35.1 °F 27% 29.90 in 10.0 mi South 18.4 mph 25.3 mph N/A   Clear
2:53 PM 73.0 °F - 34.0 °F 24% 29.86 in 10.0 mi South 20.7 mph 27.6 mph N/A   Clear
3:53 PM 75.0 °F - 34.0 °F 22% 29.83 in 10.0 mi South 16.1 mph - N/A   Clear
4:53 PM 75.0 °F - 35.1 °F 23% 29.82 in 10.0 mi SW 17.3 mph 25.3 mph N/A   Clear
5:53 PM 73.0 °F - 39.9 °F 30% 29.77 in 10.0 mi South 17.3 mph - N/A   Scattered Clouds
6:53 PM 69.1 °F - 42.1 °F 38% 29.77 in 10.0 mi South 11.5 mph - N/A   Partly Cloudy
7:53 PM 66.9 °F - 45.0 °F 45% 29.77 in 10.0 mi South 8.1 mph - N/A   Overcast
8:53 PM 66.0 °F - 46.0 °F 48% 29.75 in 10.0 mi South 10.4 mph - N/A   Overcast
9:53 PM 66.0 °F - 46.0 °F 48% 29.73 in 10.0 mi South 9.2 mph - N/A   Scattered Clouds
10:53 PM 66.0 °F - 48.9 °F 54% 29.71 in 10.0 mi South 9.2 mph - N/A   Overcast
11:53 PM 66.9 °F - 52.0 °F 59% 29.68 in 10.0 mi SSW 10.4 mph - 0.00 in   Overcast